Weather History for KPAM - January, 2013

Change the Weather History Date:

Friday, January 11, 2013

  Actual Average Record
Temperature  
Mean Temperature 70 °F -  
Max Temperature 74 °F 60 °F 74 °F (2013)
Min Temperature 63 °F 42 °F 32 °F (2001)
Cooling Degree Days 4    
Growing Degree Days 20 (Base 50)    
Moisture  
Dew Point 69 °F    
Average Humidity 97    
Maximum Humidity 100    
Minimum Humidity 90    
Precipitation  
Precipitation 0.00 in - - ()
Sea Level Pressure  
Sea Level Pressure 30.16 in    
Wind  
Wind Speed 12 mph (SSE)    
Max Wind Speed 16 mph    
Max Gust Speed 24 mph    
Visibility 10 miles    
Events      
Averages and records for this station are not official NWS values.
T = Trace of Precipitation, MM = Missing Value Source: NWS Daily Summary

Daily Weather History Graph

Daily Weather History Graph

Search for Another Location

Airport or City:

Trip Planner

Search our weather history database for the weather conditions in past years. The results will help you decide how hot, cold, wet, or windy it might be!

Date:

Astronomy

Jan. 11, 2013 Rise Set
Actual Time 6:39 AM CST 5:01 PM CST
Civil Twilight 6:13 AM CST 5:27 PM CST
Nautical Twilight 5:43 AM CST 5:57 PM CST
Astronomical Twilight 5:14 AM CST 6:26 PM CST
Moon 6:14 AM CST (1/11) 5:14 PM CST (1/11)
Length of Visible Light 11h 14m
Length of Day
10h 22m
Waning Crescent, 0% of the Moon is Illuminated
Jan 11
Waning Crescent
Jan 11
New
Jan 18
First Quarter
Jan 26
Full
Feb 3
Last Quarter

Hourly Weather History & Observations

Time (CST) Temp. Dew Point Humidity Pressure Visibility Wind Dir Wind Speed Gust Speed Precip Events Conditions
12:55 AM 67.5 °F 67.5 °F 100% 30.21 in 10.0 mi South 11.5 mph - N/A   Scattered Clouds
1:55 AM 68.2 °F 68.2 °F 100% 30.17 in 10.0 mi ESE 15.0 mph - N/A   Scattered Clouds
2:55 AM 68.2 °F 67.3 °F 97% 30.12 in 10.0 mi SE 15.0 mph 23.0 mph N/A   Clear
3:55 AM 68.7 °F 66.0 °F 91% 30.11 in 10.0 mi SE 12.7 mph - N/A   Partly Cloudy
4:55 AM 68.0 °F 68.0 °F 100% 30.12 in 10.0 mi SE 15.0 mph 21.9 mph N/A   Clear
5:55 AM 67.8 °F 67.8 °F 100% 30.13 in 10.0 mi SSE 16.1 mph - N/A   Clear
6:55 AM 68.2 °F 67.8 °F 99% 30.16 in 10.0 mi SSE 11.5 mph 24.2 mph N/A   Mostly Cloudy
7:55 AM 68.5 °F 68.5 °F 100% 30.19 in 10.0 mi SSE 10.4 mph - N/A   Mostly Cloudy
8:55 AM 70.0 °F 69.8 °F 99% 30.21 in 10.0 mi SSE 11.5 mph - N/A   Scattered Clouds
9:55 AM 72.0 °F 71.1 °F 97% 30.22 in 10.0 mi South 11.5 mph - N/A   Mostly Cloudy
10:55 AM 74.5 °F 71.8 °F 91% 30.20 in 10.0 mi South 13.8 mph 19.6 mph N/A   Partly Cloudy
11:55 AM 74.8 °F 71.8 °F 90% 30.19 in 10.0 mi SSE 15.0 mph - N/A   Scattered Clouds
12:55 PM 74.7 °F 71.6 °F 90% 30.17 in 10.0 mi South 16.1 mph - N/A   Clear
1:55 PM 74.8 °F 72.1 °F 91% 30.16 in 10.0 mi SSE 15.0 mph - N/A   Clear
2:55 PM 74.1 °F 72.0 °F 93% 30.16 in 10.0 mi SSE 13.8 mph 19.6 mph N/A   Clear
3:27 PM 73.4 °F 71.6 °F 94% 30.15 in 10.0 mi SSE 12.7 mph - N/A   Scattered Clouds
3:55 PM 72.7 °F 71.6 °F 96% 30.15 in 10.0 mi SSE 13.8 mph - N/A   Partly Cloudy
4:28 PM 71.6 °F 71.6 °F 100% 30.15 in 10.0 mi SSE 10.4 mph - N/A   Mostly Cloudy
4:55 PM 70.3 °F 70.3 °F 100% 30.15 in 10.0 mi SSE 6.9 mph - N/A   Mostly Cloudy
5:02 PM 69.8 °F 69.8 °F 100% 30.15 in 10.0 mi SSE 9.2 mph - N/A   Scattered Clouds
5:55 PM 68.9 °F 68.9 °F 100% 30.16 in 10.0 mi SSE 8.1 mph - N/A   Clear
6:55 PM 68.0 °F 68.0 °F 100% 30.17 in 10.0 mi SE 6.9 mph - N/A   Clear
7:55 PM 66.9 °F 66.9 °F 100% 30.18 in 10.0 mi SE 6.9 mph - N/A   Clear
8:55 PM 66.2 °F 66.2 °F 100% 30.17 in 10.0 mi SE 5.8 mph - N/A   Clear
9:55 PM 66.2 °F 66.2 °F 100% 30.16 in 10.0 mi SE 6.9 mph - N/A   Clear
10:55 PM 65.1 °F 65.1 °F 100% 30.16 in 10.0 mi ESE 4.6 mph - N/A   Clear
11:55 PM 63.3 °F 63.3 °F 100% 30.15 in 10.0 mi SE 6.9 mph - N/A   Clear